| time (UTC) | temp F | wind direction | speed MPH | gust MPH | rain 1hr in | rain 24hr in | rain mn in | humidity % | barometer mb |
| 20260507180819 | 64 | 345 | 1.0 | 6.0 | 0.00 | 0.00 | 0.00 | 43 | 1011.1 |
| 20260507180316 | 64 | 336 | 5.0 | 8.0 | 0.00 | 0.00 | 0.00 | 43 | 1011.2 |
| 20260507175811 | 64 | 49 | 9.0 | 10.0 | 0.00 | 0.00 | 0.00 | 43 | 1011.4 |
| 20260507175308 | 63 | 76 | 3.0 | 6.0 | 0.00 | 0.00 | 0.00 | 44 | 1011.5 |
| 20260507174805 | 63 | 71 | 5.0 | 10.0 | 0.00 | 0.00 | 0.00 | 48 | 1011.5 |
| 20260507174303 | 64 | 49 | 7.0 | 9.0 | 0.00 | 0.00 | 0.00 | 41 | 1011.7 |
| 20260507173801 | 64 | 93 | 1.0 | 3.0 | 0.00 | 0.00 | 0.00 | 45 | 1011.8 |
| 20260507173258 | 63 | 16 | 5.0 | 9.0 | 0.00 | 0.00 | 0.00 | 41 | 1012.0 |
| 20260507172754 | 63 | 47 | 5.0 | 7.0 | 0.00 | 0.00 | 0.00 | 45 | 1012.0 |
| 20260507172251 | 64 | 52 | 7.0 | 9.0 | 0.00 | 0.00 | 0.00 | 43 | 1012.1 |
| 20260507171746 | 64 | 288 | 3.0 | 6.0 | 0.00 | 0.00 | 0.00 | 41 | 1012.2 |
| 20260507171243 | 63 | 18 | 6.0 | 8.0 | 0.00 | 0.00 | 0.00 | 41 | 1012.2 |
| 20260507170740 | 62 | 87 | 1.0 | 6.0 | 0.00 | 0.00 | 0.00 | 42 | 1012.4 |
| 20260507170237 | 61 | 217 | 2.0 | 7.0 | 0.00 | 0.00 | 0.00 | 43 | 1012.3 |
| 20260507165732 | 62 | 39 | 8.0 | 10.0 | 0.00 | 0.00 | 0.00 | 42 | 1012.3 |
| 20260507165229 | 63 | 47 | 7.0 | 11.0 | 0.00 | 0.00 | 0.00 | 40 | 1012.5 |
| 20260507164725 | 63 | 40 | 3.0 | 4.0 | 0.00 | 0.00 | 0.00 | 45 | 1012.8 |
| 20260507164223 | 63 | 303 | 5.0 | 6.0 | 0.00 | 0.00 | 0.00 | 40 | 1012.9 |
| 20260507163719 | 63 | 348 | 7.0 | 9.0 | 0.00 | 0.00 | 0.00 | 45 | 1012.6 |
| 20260507163218 | 62 | 276 | 2.0 | 3.0 | 0.00 | 0.00 | 0.00 | 43 | 1012.7 |
| 20260507162713 | 62 | 329 | 3.0 | 4.0 | 0.00 | 0.00 | 0.00 | 46 | 1013.0 |
| 20260507162209 | 62 | 341 | 7.0 | 9.0 | 0.00 | 0.00 | 0.00 | 40 | 1013.0 |
| 20260507161706 | 61 | 197 | 0.0 | 3.0 | 0.00 | 0.00 | 0.00 | 47 | 1013.2 |
| 20260507161202 | 60 | 26 | 4.0 | 9.0 | 0.00 | 0.00 | 0.00 | 46 | 1013.3 |
| 20260507160658 | 61 | 12 | 5.0 | 10.0 | 0.00 | 0.00 | 0.00 | 47 | 1013.2 |
| 20260507160155 | 62 | 339 | 3.0 | 13.0 | 0.00 | 0.00 | 0.00 | 47 | 1013.5 |
| 20260507155651 | 61 | 27 | 4.0 | 6.0 | 0.00 | 0.00 | 0.00 | 46 | 1013.4 |
| 20260507155148 | 59 | 4 | 2.0 | 3.0 | 0.00 | 0.00 | 0.00 | 45 | 1013.4 |
| 20260507154644 | 60 | 352 | 4.0 | 6.0 | 0.00 | 0.00 | 0.00 | 47 | 1013.4 |
| 20260507154142 | 60 | 32 | 6.0 | 8.0 | 0.00 | 0.00 | 0.00 | 47 | 1013.4 |
| 20260507153638 | 61 | 336 | 2.0 | 6.0 | 0.00 | 0.00 | 0.00 | 46 | 1013.6 |
| 20260507153135 | 60 | 323 | 2.0 | 9.0 | 0.00 | 0.00 | 0.00 | 46 | 1013.4 |
| 20260507152631 | 60 | 355 | 6.0 | 11.0 | 0.00 | 0.00 | 0.00 | 47 | 1013.6 |
| 20260507152127 | 60 | 30 | 6.0 | 13.0 | 0.00 | 0.00 | 0.00 | 46 | 1013.4 |
| 20260507151623 | 60 | 316 | 4.0 | 7.0 | 0.00 | 0.00 | 0.00 | 48 | 1013.3 |
| 20260507151120 | 59 | 7 | 3.0 | 11.0 | 0.00 | 0.00 | 0.00 | 49 | 1013.3 |
| 20260507150617 | 59 | 33 | 7.0 | 9.0 | 0.00 | 0.00 | 0.00 | 49 | 1013.5 |
| 20260507150114 | 58 | 48 | 9.0 | 11.0 | 0.00 | 0.00 | 0.00 | 50 | 1013.8 |
| 20260507145609 | 59 | 314 | 4.0 | 8.0 | 0.00 | 0.00 | 0.00 | 47 | 1013.6 |
| 20260507145108 | 59 | 341 | 6.0 | 8.0 | 0.00 | 0.00 | 0.00 | 48 | 1013.9 |
| 20260507144603 | 58 | 347 | 8.0 | 9.0 | 0.00 | 0.00 | 0.00 | 52 | 1014.0 |
| 20260507144102 | 58 | 68 | 5.0 | 10.0 | 0.00 | 0.00 | 0.00 | 56 | 1014.2 |
| 20260507143558 | 59 | 26 | 4.0 | 6.0 | 0.00 | 0.00 | 0.00 | 53 | 1014.3 |
| 20260507143055 | 58 | 351 | 5.0 | 7.0 | 0.00 | 0.00 | 0.00 | 51 | 1014.3 |
| 20260507142555 | 56 | 337 | 4.0 | 6.0 | 0.00 | 0.00 | 0.00 | 53 | 1014.4 |
| 20260507142053 | 56 | 34 | 3.0 | 8.0 | 0.00 | 0.00 | 0.00 | 55 | 1014.4 |
| 20260507141549 | 56 | 17 | 6.0 | 8.0 | 0.00 | 0.00 | 0.00 | 54 | 1014.5 |
| 20260507141046 | 55 | 353 | 4.0 | 7.0 | 0.00 | 0.00 | 0.00 | 56 | 1014.6 |
| 20260507140542 | 55 | 33 | 4.0 | 7.0 | 0.00 | 0.00 | 0.00 | 55 | 1014.9 |
| 20260507140040 | 55 | 325 | 4.0 | 6.0 | 0.00 | 0.00 | 0.00 | 54 | 1015.1 |
| 20260507135537 | 55 | 337 | 4.0 | 6.0 | 0.00 | 0.00 | 0.00 | 52 | 1015.2 |
| 20260507135034 | 55 | 22 | 5.0 | 9.0 | 0.00 | 0.00 | 0.00 | 56 | 1014.9 |
| 20260507134530 | 55 | 327 | 6.0 | 8.0 | 0.00 | 0.00 | 0.00 | 53 | 1015.0 |
| 20260507134026 | 55 | 13 | 4.0 | 6.0 | 0.00 | 0.00 | 0.00 | 53 | 1015.0 |
| 20260507133522 | 55 | 13 | 5.0 | 9.0 | 0.00 | 0.00 | 0.00 | 53 | 1015.2 |
| 20260507133021 | 55 | 315 | 2.0 | 4.0 | 0.00 | 0.00 | 0.00 | 57 | 1015.1 |
| 20260507132517 | 55 | 330 | 2.0 | 3.0 | 0.00 | 0.00 | 0.00 | 60 | 1015.3 |
| 20260507132013 | 55 | 1 | 3.0 | 4.0 | 0.00 | 0.00 | 0.00 | 59 | 1015.3 |
| 20260507131510 | 54 | 330 | 2.0 | 4.0 | 0.00 | 0.00 | 0.00 | 59 | 1015.4 |
| 20260507131008 | 54 | 17 | 4.0 | 6.0 | 0.00 | 0.00 | 0.00 | 59 | 1015.3 |
| 20260507130504 | 54 | 320 | 5.0 | 7.0 | 0.00 | 0.00 | 0.00 | 58 | 1015.3 |
| 20260507130003 | 54 | 332 | 3.0 | 6.0 | 0.00 | 0.00 | 0.00 | 60 | 1015.3 |
| 20260507125501 | 54 | 319 | 4.0 | 6.0 | 0.00 | 0.00 | 0.00 | 62 | 1015.3 |
| 20260507124958 | 53 | 329 | 2.0 | 6.0 | 0.00 | 0.00 | 0.00 | 61 | 1015.3 |
| 20260507124454 | 53 | 329 | 4.0 | 4.0 | 0.00 | 0.00 | 0.00 | 62 | 1015.3 |
| 20260507123952 | 53 | 345 | 1.0 | 3.0 | 0.00 | 0.00 | 0.00 | 64 | 1015.3 |
| 20260507123449 | 53 | 326 | 1.0 | 2.0 | 0.00 | 0.00 | 0.00 | 63 | 1015.3 |
| 20260507122946 | 53 | 324 | 2.0 | 3.0 | 0.00 | 0.00 | 0.00 | 65 | 1015.2 |
| 20260507122441 | 53 | 5 | 2.0 | 3.0 | 0.00 | 0.00 | 0.00 | 64 | 1015.2 |
| 20260507121937 | 53 | 325 | 1.0 | 3.0 | 0.00 | 0.00 | 0.00 | 65 | 1015.2 |
| 20260507121433 | 53 | 321 | 2.0 | 3.0 | 0.00 | 0.00 | 0.00 | 65 | 1015.2 |
| 20260507120930 | 53 | 16 | 2.0 | 3.0 | 0.00 | 0.00 | 0.00 | 67 | 1015.2 |
| 20260507120426 | 53 | 308 | 1.0 | 2.0 | 0.00 | 0.00 | 0.00 | 70 | 1015.3 |
| 20260507115922 | 53 | 355 | 1.0 | 2.0 | 0.00 | 0.00 | 0.00 | 70 | 1015.1 |
| 20260507115419 | 52 | 328 | 1.0 | 3.0 | 0.00 | 0.00 | 0.00 | 70 | 1015.2 |
| 20260507114914 | 52 | 317 | 1.0 | 3.0 | 0.00 | 0.00 | 0.00 | 71 | 1015.2 |
| 20260507114411 | 52 | 323 | 2.0 | 2.0 | 0.00 | 0.00 | 0.00 | 70 | 1015.0 |
| 20260507113908 | 52 | 332 | 2.0 | 2.0 | 0.00 | 0.00 | 0.00 | 72 | 1015.0 |
| 20260507113406 | 52 | 350 | 1.0 | 2.0 | 0.00 | 0.00 | 0.00 | 71 | 1014.9 |
| 20260507112903 | 52 | 345 | 1.0 | 2.0 | 0.00 | 0.00 | 0.00 | 71 | 1015.0 |
| 20260507112400 | 52 | 39 | 1.0 | 2.0 | 0.00 | 0.00 | 0.00 | 71 | 1014.7 |
| 20260507111858 | 51 | 3 | 1.0 | 2.0 | 0.00 | 0.00 | 0.00 | 71 | 1015.0 |
| 20260507111354 | 51 | 15 | 1.0 | 2.0 | 0.00 | 0.00 | 0.00 | 71 | 1015.0 |
| 20260507110850 | 51 | 355 | 1.0 | 1.0 | 0.00 | 0.00 | 0.00 | 71 | 1014.9 |
| 20260507110346 | 51 | 0 | 1.0 | 1.0 | 0.00 | 0.00 | 0.00 | 71 | 1015.0 |
| 20260507105844 | 51 | 11 | 1.0 | 2.0 | 0.00 | 0.00 | 0.00 | 73 | 1015.1 |
| 20260507105340 | 51 | 20 | 1.0 | 1.0 | 0.00 | 0.00 | 0.00 | 71 | 1015.1 |
| 20260507104837 | 51 | 30 | 0.0 | 2.0 | 0.00 | 0.00 | 0.00 | 72 | 1014.7 |
| 20260507104334 | 51 | 16 | 1.0 | 1.0 | 0.00 | 0.00 | 0.00 | 73 | 1014.6 |
| 20260507103830 | 51 | 2 | 0.0 | 0.0 | 0.00 | 0.00 | 0.00 | 75 | 1014.7 |
| 20260507103326 | 51 | 8 | 0.0 | 0.0 | 0.00 | 0.00 | 0.00 | 75 | 1014.5 |
| 20260507102823 | 51 | 3 | 0.0 | 1.0 | 0.00 | 0.00 | 0.00 | 73 | 1014.3 |
| 20260507102320 | 51 | 5 | 0.0 | 1.0 | 0.00 | 0.00 | 0.00 | 74 | 1014.4 |
| 20260507101816 | 51 | 18 | 2.0 | 2.0 | 0.00 | 0.00 | 0.00 | 73 | 1014.3 |
| 20260507101316 | 51 | 26 | 0.0 | 2.0 | 0.00 | 0.00 | 0.00 | 73 | 1014.4 |
| 20260507100813 | 51 | 23 | 0.0 | 0.0 | 0.00 | 0.00 | 0.00 | 74 | 1014.1 |
| 20260507100311 | 51 | 23 | 1.0 | 1.0 | 0.00 | 0.00 | 0.00 | 72 | 1014.5 |
| 20260507095809 | 51 | 33 | 1.0 | 1.0 | 0.00 | 0.00 | 0.00 | 72 | 1014.1 |
| 20260507095306 | 51 | 18 | 2.0 | 2.0 | 0.00 | 0.00 | 0.00 | 72 | 1014.0 |
| 20260507094802 | 52 | 24 | 1.0 | 2.0 | 0.00 | 0.00 | 0.00 | 72 | 1014.1 |
| 20260507094259 | 52 | 40 | 2.0 | 3.0 | 0.00 | 0.00 | 0.00 | 74 | 1013.9 |
| 20260507093756 | 52 | 40 | 2.0 | 3.0 | 0.00 | 0.00 | 0.00 | 74 | 1013.9 |
| 20260507093254 | 52 | 36 | 3.0 | 4.0 | 0.00 | 0.00 | 0.00 | 73 | 1014.0 |
| 20260507092752 | 52 | 18 | 2.0 | 4.0 | 0.00 | 0.00 | 0.00 | 74 | 1014.0 |
| 20260507092248 | 52 | 33 | 3.0 | 4.0 | 0.00 | 0.00 | 0.00 | 76 | 1013.9 |
| 20260507091744 | 53 | 35 | 2.0 | 4.0 | 0.00 | 0.00 | 0.00 | 76 | 1014.0 |
| 20260507091241 | 52 | 7 | 2.0 | 2.0 | 0.00 | 0.00 | 0.00 | 76 | 1014.1 |
| 20260507090736 | 53 | 30 | 2.0 | 2.0 | 0.00 | 0.00 | 0.00 | 76 | 1014.1 |
| 20260507090233 | 53 | 341 | 2.0 | 3.0 | 0.00 | 0.00 | 0.00 | 75 | 1014.0 |
| 20260507085730 | 53 | 344 | 2.0 | 3.0 | 0.00 | 0.00 | 0.00 | 75 | 1013.9 |
| 20260507085227 | 53 | 341 | 4.0 | 4.0 | 0.00 | 0.00 | 0.00 | 74 | 1014.2 |
| 20260507084724 | 53 | 342 | 3.0 | 4.0 | 0.00 | 0.00 | 0.00 | 75 | 1013.9 |
| 20260507084221 | 53 | 359 | 3.0 | 4.0 | 0.00 | 0.00 | 0.00 | 75 | 1014.1 |
| 20260507083718 | 53 | 338 | 2.0 | 3.0 | 0.00 | 0.00 | 0.00 | 77 | 1013.9 |
| 20260507083215 | 53 | 351 | 2.0 | 4.0 | 0.00 | 0.00 | 0.00 | 76 | 1013.8 |
| 20260507082711 | 53 | 354 | 2.0 | 3.0 | 0.00 | 0.00 | 0.00 | 76 | 1013.8 |
| 20260507082207 | 53 | 359 | 2.0 | 4.0 | 0.00 | 0.00 | 0.00 | 76 | 1014.0 |
| 20260507081704 | 54 | 355 | 1.0 | 3.0 | 0.00 | 0.00 | 0.00 | 76 | 1014.0 |
| 20260507081159 | 54 | 349 | 4.0 | 4.0 | 0.00 | 0.00 | 0.00 | 76 | 1014.0 |
| 20260507080656 | 54 | 339 | 2.0 | 7.0 | 0.00 | 0.00 | 0.00 | 77 | 1013.9 |
| 20260507080153 | 54 | 14 | 3.0 | 6.0 | 0.00 | 0.00 | 0.00 | 78 | 1013.6 |
| 20260507075648 | 54 | 30 | 2.0 | 3.0 | 0.00 | 0.00 | 0.00 | 78 | 1013.6 |
| 20260507075144 | 54 | 355 | 3.0 | 4.0 | 0.00 | 0.00 | 0.00 | 78 | 1013.6 |
| 20260507074641 | 54 | 5 | 3.0 | 3.0 | 0.00 | 0.00 | 0.00 | 79 | 1013.4 |
| 20260507074139 | 54 | 350 | 3.0 | 3.0 | 0.00 | 0.00 | 0.00 | 79 | 1013.3 |
| 20260507073635 | 54 | 21 | 3.0 | 3.0 | 0.00 | 0.00 | 0.00 | 80 | 1013.6 |
| 20260507073132 | 54 | 354 | 0.0 | 0.0 | 0.00 | 0.00 | 0.00 | 80 | 1013.4 |
| 20260507072630 | 54 | 6 | 1.0 | 3.0 | 0.00 | 0.00 | 0.00 | 80 | 1013.5 |
| 20260507072127 | 54 | 346 | 3.0 | 4.0 | 0.00 | 0.00 | 0.00 | 80 | 1013.2 |
| 20260507071624 | 53 | 9 | 2.0 | 3.0 | 0.00 | 0.00 | 0.00 | 83 | 1013.2 |
| 20260507071120 | 53 | 16 | 2.0 | 3.0 | 0.00 | 0.00 | 0.00 | 84 | 1013.2 |
| 20260507070618 | 53 | 34 | 2.0 | 3.0 | 0.00 | 0.00 | 0.00 | 84 | 1013.3 |
| 20260507070115 | 53 | 23 | 2.0 | 2.0 | 0.00 | 0.00 | 0.00 | 84 | 1013.4 |
| 20260507065611 | 53 | 351 | 1.0 | 2.0 | 0.00 | 0.00 | 0.00 | 85 | 1013.5 |
| 20260507065108 | 53 | 345 | 0.0 | 0.0 | 0.00 | 0.00 | 0.00 | 85 | 1013.5 |
| 20260507064606 | 53 | 339 | 0.0 | 0.0 | 0.00 | 0.00 | 0.00 | 85 | 1013.5 |
| 20260507064104 | 53 | 339 | 0.0 | 0.0 | 0.00 | 0.00 | 0.00 | 84 | 1013.6 |
| 20260507063601 | 53 | 339 | 1.0 | 1.0 | 0.00 | 0.00 | 0.00 | 84 | 1013.8 |
| 20260507063058 | 53 | 349 | 0.0 | 1.0 | 0.00 | 0.00 | 0.00 | 83 | 1013.7 |
| 20260507062554 | 54 | 343 | 1.0 | 2.0 | 0.00 | 0.00 | 0.00 | 83 | 1013.7 |
| 20260507062052 | 54 | 324 | 2.0 | 3.0 | 0.00 | 0.00 | 0.00 | 83 | 1013.6 |
| 20260507061550 | 54 | 4 | 2.0 | 4.0 | 0.00 | 0.00 | 0.00 | 81 | 1013.9 |
| 20260507061048 | 55 | 313 | 2.0 | 3.0 | 0.00 | 0.00 | 0.00 | 81 | 1014.2 |
| 20260507060546 | 55 | 7 | 2.0 | 2.0 | 0.00 | 0.00 | 0.00 | 81 | 1014.1 |
| 20260507060042 | 55 | 319 | 3.0 | 3.0 | 0.00 | 0.00 | 0.00 | 80 | 1014.1 |
| 20260507055537 | 55 | 320 | 2.0 | 2.0 | 0.00 | 0.00 | 0.00 | 80 | 1014.2 |
| 20260507055033 | 55 | 318 | 1.0 | 2.0 | 0.00 | 0.00 | 0.00 | 80 | 1014.1 |
| 20260507054529 | 55 | 341 | 2.0 | 2.0 | 0.00 | 0.00 | 0.00 | 79 | 1014.0 |
| 20260507054027 | 55 | 326 | 2.0 | 2.0 | 0.00 | 0.00 | 0.00 | 80 | 1013.9 |
| 20260507053525 | 55 | 343 | 2.0 | 2.0 | 0.00 | 0.00 | 0.00 | 80 | 1013.9 |
| 20260507053023 | 55 | 326 | 2.0 | 2.0 | 0.00 | 0.00 | 0.00 | 80 | 1013.9 |
| 20260507052520 | 55 | 356 | 1.0 | 3.0 | 0.00 | 0.00 | 0.00 | 80 | 1013.5 |
| 20260507052017 | 55 | 356 | 2.0 | 2.0 | 0.00 | 0.00 | 0.00 | 80 | 1013.6 |
| 20260507051515 | 55 | 13 | 2.0 | 3.0 | 0.00 | 0.00 | 0.00 | 79 | 1013.5 |
| 20260507051011 | 55 | 18 | 2.0 | 3.0 | 0.00 | 0.00 | 0.00 | 79 | 1013.5 |
| 20260507050508 | 55 | 350 | 4.0 | 7.0 | 0.00 | 0.00 | 0.00 | 78 | 1013.6 |
| 20260507050005 | 55 | 341 | 3.0 | 6.0 | 0.00 | 0.00 | 0.00 | 78 | 1013.7 |
| 20260507045501 | 55 | 347 | 3.0 | 3.0 | 0.00 | 0.00 | 0.00 | 79 | 1013.5 |
| 20260507044958 | 55 | 319 | 4.0 | 7.0 | 0.00 | 0.00 | 0.00 | 78 | 1013.5 |
| 20260507044455 | 55 | 352 | 3.0 | 8.0 | 0.00 | 0.00 | 0.00 | 78 | 1013.5 |
| 20260507043951 | 56 | 6 | 3.0 | 6.0 | 0.00 | 0.00 | 0.00 | 79 | 1013.6 |
| 20260507043447 | 55 | 8 | 6.0 | 9.0 | 0.00 | 0.00 | 0.00 | 80 | 1013.4 |
| 20260507042944 | 55 | 342 | 2.0 | 3.0 | 0.00 | 0.00 | 0.00 | 82 | 1013.3 |
| 20260507042441 | 55 | 8 | 2.0 | 4.0 | 0.00 | 0.00 | 0.00 | 81 | 1012.9 |
| 20260507041936 | 55 | 325 | 3.0 | 4.0 | 0.00 | 0.00 | 0.00 | 81 | 1013.3 |
| 20260507041433 | 56 | 356 | 4.0 | 4.0 | 0.00 | 0.00 | 0.00 | 81 | 1013.3 |
| 20260507040931 | 56 | 0 | 5.0 | 7.0 | 0.00 | 0.00 | 0.00 | 81 | 1013.4 |
| 20260507040431 | 56 | 339 | 4.0 | 8.0 | 0.00 | 0.00 | 0.00 | 81 | 1013.4 |
| 20260507035927 | 56 | 319 | 6.0 | 7.0 | 0.00 | 0.12 | 0.12 | 81 | 1013.7 |
| 20260507035424 | 56 | 321 | 4.0 | 7.0 | 0.00 | 0.12 | 0.12 | 82 | 1013.6 |
| 20260507034921 | 56 | 31 | 9.0 | 10.0 | 0.00 | 0.12 | 0.12 | 82 | 1013.4 |
| 20260507034418 | 56 | 0 | 4.0 | 8.0 | 0.00 | 0.12 | 0.12 | 83 | 1013.2 |
| 20260507033916 | 56 | 11 | 6.0 | 9.0 | 0.00 | 0.12 | 0.12 | 83 | 1013.1 |
| 20260507033414 | 56 | 354 | 4.0 | 9.0 | 0.00 | 0.12 | 0.12 | 83 | 1013.4 |
| 20260507032911 | 57 | 351 | 5.0 | 7.0 | 0.00 | 0.12 | 0.12 | 82 | 1013.3 |
| 20260507032407 | 57 | 7 | 3.0 | 7.0 | 0.00 | 0.12 | 0.12 | 82 | 1013.3 |
| 20260507031903 | 57 | 344 | 6.0 | 8.0 | 0.00 | 0.12 | 0.12 | 81 | 1013.5 |
| 20260507031400 | 57 | 348 | 5.0 | 6.0 | 0.00 | 0.12 | 0.12 | 82 | 1013.4 |
| 20260507030857 | 57 | 348 | 5.0 | 8.0 | 0.00 | 0.12 | 0.12 | 82 | 1013.1 |
| 20260507030354 | 58 | 318 | 3.0 | 3.0 | 0.00 | 0.12 | 0.12 | 80 | 1013.4 |
| 20260507025851 | 58 | 296 | 3.0 | 4.0 | 0.00 | 0.12 | 0.12 | 80 | 1013.5 |
| 20260507025349 | 58 | 334 | 5.0 | 7.0 | 0.00 | 0.12 | 0.12 | 80 | 1013.3 |
| 20260507024846 | 58 | 332 | 5.0 | 7.0 | 0.00 | 0.12 | 0.12 | 80 | 1013.1 |
| 20260507024343 | 58 | 359 | 5.0 | 8.0 | 0.00 | 0.12 | 0.12 | 80 | 1013.0 |
| 20260507023839 | 58 | 334 | 5.0 | 7.0 | 0.00 | 0.12 | 0.12 | 80 | 1012.8 |
| 20260507023336 | 58 | 336 | 9.0 | 11.0 | 0.00 | 0.12 | 0.12 | 80 | 1013.0 |
| 20260507022833 | 58 | 4 | 5.0 | 9.0 | 0.00 | 0.12 | 0.12 | 80 | 1012.8 |
| 20260507022330 | 59 | 342 | 4.0 | 6.0 | 0.00 | 0.12 | 0.12 | 79 | 1013.1 |
| 20260507021825 | 59 | 9 | 3.0 | 8.0 | 0.00 | 0.12 | 0.12 | 79 | 1012.9 |
| 20260507021321 | 59 | 2 | 5.0 | 7.0 | 0.00 | 0.12 | 0.12 | 79 | 1012.5 |
| 20260507020819 | 59 | 29 | 5.0 | 7.0 | 0.00 | 0.12 | 0.12 | 79 | 1012.5 |
| 20260507020315 | 59 | 342 | 3.0 | 6.0 | 0.00 | 0.12 | 0.12 | 80 | 1012.9 |
| 20260507015813 | 60 | 332 | 3.0 | 4.0 | 0.00 | 0.12 | 0.12 | 79 | 1012.6 |
| 20260507015310 | 60 | 345 | 1.0 | 4.0 | 0.00 | 0.12 | 0.12 | 80 | 1012.5 |
| 20260507014807 | 60 | 350 | 1.0 | 3.0 | 0.00 | 0.12 | 0.12 | 80 | 1012.5 |
| 20260507014304 | 60 | 10 | 3.0 | 4.0 | 0.00 | 0.12 | 0.12 | 79 | 1012.7 |
| 20260507013800 | 60 | 342 | 1.0 | 7.0 | 0.00 | 0.12 | 0.12 | 79 | 1012.6 |
| 20260507013257 | 60 | 332 | 2.0 | 6.0 | 0.00 | 0.12 | 0.12 | 79 | 1012.9 |
| 20260507012755 | 60 | 332 | 4.0 | 6.0 | 0.00 | 0.12 | 0.12 | 80 | 1012.3 |
| 20260507012250 | 60 | 303 | 6.0 | 7.0 | 0.00 | 0.12 | 0.12 | 79 | 1012.0 |
| 20260507011748 | 61 | 304 | 4.0 | 7.0 | 0.00 | 0.12 | 0.12 | 79 | 1012.1 |
| 20260507011244 | 60 | 326 | 3.0 | 7.0 | 0.00 | 0.12 | 0.12 | 78 | 1012.2 |
| 20260507010744 | 60 | 323 | 3.0 | 4.0 | 0.00 | 0.12 | 0.12 | 79 | 1012.1 |
| 20260507010240 | 60 | 23 | 3.0 | 4.0 | 0.00 | 0.12 | 0.12 | 80 | 1011.9 |
| 20260507005738 | 61 | 354 | 3.0 | 4.0 | 0.00 | 0.12 | 0.12 | 81 | 1012.0 |
| 20260507005234 | 61 | 18 | 1.0 | 2.0 | 0.00 | 0.12 | 0.12 | 81 | 1012.4 |
| 20260507004731 | 61 | 315 | 1.0 | 3.0 | 0.00 | 0.12 | 0.12 | 81 | 1012.5 |
| 20260507004229 | 61 | 315 | 1.0 | 3.0 | 0.00 | 0.12 | 0.12 | 81 | 1012.5 |
| 20260507003724 | 61 | 310 | 3.0 | 3.0 | 0.00 | 0.12 | 0.12 | 82 | 1012.5 |
| 20260507003220 | 61 | 293 | 2.0 | 4.0 | 0.00 | 0.12 | 0.12 | 82 | 1012.4 |
| 20260507002716 | 61 | 307 | 3.0 | 4.0 | 0.00 | 0.12 | 0.12 | 81 | 1012.1 |
| 20260507002212 | 62 | 339 | 3.0 | 7.0 | 0.00 | 0.12 | 0.12 | 79 | 1012.0 |
| 20260507001709 | 62 | 266 | 4.0 | 7.0 | 0.00 | 0.12 | 0.12 | 78 | 1012.1 |
| 20260507001206 | 62 | 317 | 5.0 | 6.0 | 0.00 | 0.12 | 0.12 | 78 | 1011.9 |
| 20260507000702 | 62 | 329 | 3.0 | 8.0 | 0.00 | 0.12 | 0.12 | 78 | 1012.2 |
| 20260507000158 | 63 | 315 | 2.0 | 4.0 | 0.00 | 0.12 | 0.12 | 80 | 1012.0 |
| 20260506235655 | 63 | 296 | 6.0 | 8.0 | 0.00 | 0.12 | 0.12 | 79 | 1011.7 |
| 20260506235151 | 63 | 323 | 3.0 | 10.0 | 0.00 | 0.12 | 0.12 | 82 | 1011.9 |
| 20260506234648 | 63 | 322 | 3.0 | 6.0 | 0.00 | 0.12 | 0.12 | 82 | 1011.7 |
| 20260506234145 | 64 | 269 | 2.0 | 3.0 | 0.00 | 0.12 | 0.12 | 81 | 1011.3 |
| 20260506233642 | 64 | 282 | 2.0 | 4.0 | 0.00 | 0.12 | 0.12 | 81 | 1011.4 |
| 20260506233139 | 64 | 264 | 2.0 | 3.0 | 0.00 | 0.12 | 0.12 | 83 | 1011.3 |
| 20260506232635 | 64 | 290 | 2.0 | 2.0 | 0.00 | 0.12 | 0.12 | 83 | 1011.1 |
| 20260506232131 | 64 | 327 | 2.0 | 4.0 | 0.00 | 0.12 | 0.12 | 82 | 1011.0 |
| 20260506231628 | 64 | 299 | 4.0 | 4.0 | 0.00 | 0.12 | 0.12 | 80 | 1010.8 |
| 20260506231126 | 64 | 321 | 2.0 | 4.0 | 0.00 | 0.12 | 0.12 | 81 | 1010.9 |
| 20260506230623 | 65 | 305 | 4.0 | 9.0 | 0.00 | 0.12 | 0.12 | 81 | 1010.8 |
| 20260506230120 | 65 | 334 | 4.0 | 6.0 | 0.00 | 0.12 | 0.12 | 82 | 1010.9 |
| 20260506225616 | 65 | 17 | 2.0 | 4.0 | 0.00 | 0.12 | 0.12 | 82 | 1010.3 |
| 20260506225113 | 66 | 307 | 3.0 | 6.0 | 0.00 | 0.12 | 0.12 | 82 | 1010.8 |
| 20260506224610 | 67 | 345 | 3.0 | 4.0 | 0.00 | 0.12 | 0.12 | 82 | 1010.6 |
| 20260506224106 | 66 | 328 | 1.0 | 4.0 | 0.00 | 0.12 | 0.12 | 82 | 1010.7 |
| 20260506223602 | 66 | 339 | 2.0 | 6.0 | 0.00 | 0.12 | 0.12 | 81 | 1010.5 |
| 20260506223059 | 66 | 335 | 2.0 | 4.0 | 0.00 | 0.12 | 0.12 | 82 | 1010.8 |
| 20260506222556 | 66 | 341 | 3.0 | 6.0 | 0.00 | 0.12 | 0.12 | 82 | 1010.6 |
| 20260506222052 | 67 | 19 | 5.0 | 7.0 | 0.00 | 0.12 | 0.12 | 81 | 1010.3 |
| 20260506221550 | 67 | 335 | 2.0 | 4.0 | 0.00 | 0.12 | 0.12 | 83 | 1010.1 |
| 20260506221048 | 67 | 3 | 5.0 | 7.0 | 0.00 | 0.12 | 0.12 | 82 | 1010.3 |
| 20260506220543 | 67 | 319 | 4.0 | 4.0 | 0.00 | 0.12 | 0.12 | 81 | 1010.2 |
| 20260506220039 | 67 | 338 | 3.0 | 7.0 | 0.00 | 0.12 | 0.12 | 80 | 1010.0 |
| 20260506215536 | 68 | 313 | 5.0 | 7.0 | 0.00 | 0.12 | 0.12 | 80 | 1009.8 |
| 20260506215032 | 68 | 318 | 8.0 | 10.0 | 0.00 | 0.12 | 0.12 | 79 | 1009.9 |
| 20260506214529 | 69 | 6 | 4.0 | 9.0 | 0.00 | 0.12 | 0.12 | 82 | 1009.7 |
| 20260506214026 | 69 | 26 | 1.0 | 2.0 | 0.00 | 0.12 | 0.12 | 82 | 1009.7 |
| 20260506213524 | 69 | 90 | 0.0 | 0.0 | 0.00 | 0.12 | 0.12 | 82 | 1009.7 |
| 20260506213021 | 69 | 96 | 0.0 | 0.0 | 0.00 | 0.12 | 0.12 | 82 | 1009.8 |
| 20260506212518 | 69 | 154 | 1.0 | 2.0 | 0.00 | 0.12 | 0.12 | 82 | 1009.6 |
| 20260506212013 | 69 | 94 | 0.0 | 0.0 | 0.00 | 0.12 | 0.12 | 82 | 1009.6 |
| 20260506211509 | 69 | 79 | 0.0 | 0.0 | 0.00 | 0.12 | 0.12 | 81 | 1009.5 |
| 20260506211006 | 69 | 67 | 1.0 | 2.0 | 0.00 | 0.12 | 0.12 | 82 | 1009.5 |
| 20260506210502 | 69 | 82 | 2.0 | 3.0 | 0.00 | 0.12 | 0.12 | 83 | 1009.4 |
| 20260506205959 | 69 | 92 | 1.0 | 2.0 | 0.00 | 0.12 | 0.12 | 83 | 1009.2 |
| 20260506205455 | 68 | 127 | 1.0 | 3.0 | 0.00 | 0.12 | 0.12 | 84 | 1009.1 |
| 20260506204951 | 68 | 81 | 3.0 | 4.0 | 0.00 | 0.12 | 0.12 | 83 | 1009.1 |
| 20260506204450 | 69 | 116 | 2.0 | 3.0 | 0.00 | 0.12 | 0.12 | 83 | 1009.1 |
| 20260506203947 | 68 | 119 | 0.0 | 2.0 | 0.00 | 0.12 | 0.12 | 84 | 1009.0 |
| 20260506203444 | 68 | 85 | 1.0 | 3.0 | 0.00 | 0.12 | 0.12 | 85 | 1009.0 |
| 20260506202941 | 67 | 105 | 0.0 | 1.0 | 0.00 | 0.12 | 0.12 | 86 | 1009.0 |
| 20260506202438 | 67 | 152 | 0.0 | 2.0 | 0.00 | 0.12 | 0.12 | 86 | 1009.2 |
| 20260506201934 | 67 | 165 | 0.0 | 1.0 | 0.00 | 0.12 | 0.12 | 87 | 1009.2 |
| 20260506201432 | 67 | 129 | 1.0 | 2.0 | 0.00 | 0.12 | 0.12 | 86 | 1009.2 |
| 20260506200928 | 67 | 79 | 0.0 | 2.0 | 0.00 | 0.12 | 0.12 | 86 | 1009.3 |
| 20260506200425 | 67 | 67 | 1.0 | 2.0 | 0.00 | 0.12 | 0.12 | 87 | 1009.0 |
| 20260506195921 | 67 | 69 | 2.0 | 2.0 | 0.00 | 0.12 | 0.12 | 86 | 1009.1 |
| 20260506195418 | 67 | 49 | 2.0 | 2.0 | 0.00 | 0.12 | 0.12 | 87 | 1009.1 |
| 20260506194915 | 67 | 29 | 1.0 | 2.0 | 0.00 | 0.12 | 0.12 | 87 | 1009.3 |
| 20260506194412 | 66 | 33 | 2.0 | 4.0 | 0.00 | 0.12 | 0.12 | 86 | 1009.2 |
| 20260506193909 | 67 | 17 | 5.0 | 6.0 | 0.00 | 0.12 | 0.12 | 85 | 1009.2 |
| 20260506193406 | 67 | 12 | 3.0 | 6.0 | 0.00 | 0.12 | 0.12 | 85 | 1009.1 |
| 20260506192902 | 67 | 8 | 3.0 | 6.0 | 0.00 | 0.12 | 0.12 | 85 | 1009.1 |
| 20260506192359 | 67 | 11 | 4.0 | 6.0 | 0.00 | 0.12 | 0.12 | 85 | 1009.2 |
| 20260506191856 | 67 | 6 | 3.0 | 4.0 | 0.00 | 0.12 | 0.12 | 86 | 1009.1 |
| 20260506191352 | 68 | 21 | 4.0 | 7.0 | 0.00 | 0.12 | 0.12 | 85 | 1009.2 |
| 20260506190849 | 70 | 302 | 4.0 | 4.0 | 0.00 | 0.12 | 0.12 | 80 | 1009.2 |
| 20260506190345 | 70 | 39 | 0.0 | 0.0 | 0.00 | 0.12 | 0.12 | 77 | 1009.2 |
| 20260506185843 | 70 | 40 | 2.0 | 2.0 | 0.00 | 0.12 | 0.12 | 78 | 1009.1 |
| 20260506185340 | 69 | 89 | 0.0 | 1.0 | 0.00 | 0.12 | 0.12 | 79 | 1009.2 |
| 20260506184837 | 69 | 154 | 0.0 | 1.0 | 0.00 | 0.12 | 0.12 | 80 | 1009.1 |
| 20260506184334 | 69 | 166 | 0.0 | 2.0 | 0.00 | 0.12 | 0.12 | 82 | 1009.2 |
| 20260506183831 | 68 | 199 | 1.0 | 2.0 | 0.00 | 0.12 | 0.12 | 80 | 1009.2 |
| 20260506183326 | 69 | 167 | 3.0 | 4.0 | 0.00 | 0.12 | 0.12 | 80 | 1009.2 |
| 20260506182824 | 69 | 209 | 2.0 | 3.0 | 0.00 | 0.12 | 0.12 | 78 | 1009.3 |
| 20260506182321 | 69 | 206 | 3.0 | 4.0 | 0.00 | 0.12 | 0.12 | 79 | 1009.2 |
| 20260506181819 | 69 | 212 | 2.0 | 3.0 | 0.00 | 0.12 | 0.12 | 79 | 1009.3 |
| 20260506181316 | 69 | 236 | 2.0 | 4.0 | 0.00 | 0.12 | 0.12 | 77 | 1009.3 |